Location: Atlantic Beach
(40.5890°N, 73.7290°W)
Time: 02:27:15
(UTC+00:00)

Hubble Space Telescope - Pass Details

Date: 24 January 2021
Orbit: 535 x 539 km, 28.5° (Epoch: 03 March)

Event Time Altitude Azimuth Distance (km) Brightness Sun altitude
Rises 23:42:10 0° 246° (WSW) 2,674 5.8 -18.7°
Reaches altitude 10° 23:45:47 10° 213° (SSW) 1,782 4.0 -19.4°
Maximum altitude 23:47:16 12° 192° (SSW) 1,673 3.5 -19.7°
Drops below altitude 10° 23:48:46 10° 170° (S) 1,782 3.4 -19.9°
Enters shadow 23:49:41 - 160° (SSE) 1,942 3.5 -20.1°
